EW0125 Weather Reports


time (UTC)temp
F
wind
direction
speed
knots
gust
knots
rain 1hr
in
rain 24hr
in
rain mn
in
humidity
%
barometer
mb
20260507160553 55 12 1.7 7.8 0.00 0.15 0.15 84 1011.5
20260507160100 56 29 2.6 7.8 0.00 0.15 0.15 84 1011.5
20260507155553 56 0 1.7 5.2 0.00 0.17 0.15 84 1011.8
20260507155052 56 13 1.7 5.2 0.00 0.17 0.15 84 1011.6
20260507154554 56 49 1.7 7.8 0.00 0.17 0.15 84 1011.3
20260507154053 56 50 1.7 7.8 0.00 0.17 0.15 84 1011.6
20260507153552 56 24 2.6 7.8 0.00 0.17 0.15 84 1011.5
20260507153100 56 42 1.7 5.2 0.00 0.17 0.15 85 1011.4
20260507152556 56 49 1.7 7.8 0.00 0.17 0.15 85 1011.3
20260507152051 56 48 1.7 7.8 0.00 0.17 0.15 86 1011.4
20260507151619 56 85 2.6 6.1 0.00 0.17 0.15 86 1011.5
20260507151052 56 54 0.9 5.2 0.00 0.17 0.15 86 1011.6
20260507150553 56 54 0.9 7.0 0.00 0.17 0.15 86 1011.5
20260507150101 56 53 1.7 7.0 0.00 0.17 0.15 87 1011.5
20260507145555 57 38 2.6 7.8 0.00 0.19 0.15 87 1011.5
20260507145052 57 54 2.6 7.8 0.00 0.19 0.15 88 1011.3
20260507144556 57 30 0.9 3.5 0.00 0.19 0.15 89 1011.2
20260507144053 57 30 0.9 3.5 0.00 0.19 0.15 89 1011.1
20260507143552 57 30 0.9 5.2 0.00 0.19 0.15 89 1010.9
20260507143055 57 33 0.9 5.2 0.00 0.19 0.15 89 1011.1
20260507142554 57 26 1.7 7.8 0.00 0.19 0.15 89 1011.4
20260507142052 57 44 0.9 7.8 0.00 0.19 0.15 89 1011.5
20260507141557 57 9 0.9 7.0 0.00 0.19 0.15 89 1011.7
20260507141052 57 50 1.7 7.0 0.00 0.19 0.15 89 1011.5
20260507140553 57 62 0.9 5.2 0.00 0.19 0.15 90 1011.6
20260507140110 57 34 1.7 7.0 0.00 0.19 0.15 90 1011.5
20260507135553 57 77 0.9 7.0 0.00 0.20 0.15 90 1011.6
20260507135056 57 28 1.7 6.1 0.00 0.20 0.15 90 1011.5
20260507134557 57 88 1.7 7.0 0.00 0.20 0.15 90 1011.5
20260507134053 57 13 2.6 7.0 0.00 0.20 0.15 90 1011.4
20260507133553 57 91 1.7 7.0 0.00 0.20 0.15 91 1011.4
20260507133057 58 51 1.7 6.1 0.00 0.20 0.15 91 1011.1
20260507132552 58 0 1.7 5.2 0.00 0.20 0.15 91 1011.0
20260507132051 58 41 0.9 5.2 0.00 0.20 0.15 91 1011.0
20260507131602 58 0 1.7 5.2 0.00 0.20 0.15 91 1011.0
20260507131054 58 44 1.7 4.3 0.00 0.20 0.15 91 1011.1
20260507130552 58 49 0.0 4.3 0.00 0.20 0.15 91 1010.9
20260507130056 58 49 1.7 4.3 0.00 0.20 0.15 91 1010.9
20260507125554 57 51 0.9 4.3 0.00 0.20 0.15 91 1011.2
20260507125053 57 51 1.7 4.3 0.00 0.20 0.15 91 1011.4
20260507124559 57 51 0.9 2.6 0.00 0.20 0.15 91 1011.3
20260507124052 57 50 0.9 2.6 0.00 0.20 0.15 92 1011.2
20260507123552 57 50 0.9 3.5 0.00 0.20 0.15 92 1010.9
20260507123054 57 50 0.9 3.5 0.00 0.20 0.15 91 1011.1
20260507122553 57 50 0.0 2.6 0.00 0.20 0.15 92 1011.2
20260507122053 57 50 0.9 2.6 0.00 0.20 0.15 91 1011.0
20260507121556 57 50 0.0 2.6 0.00 0.20 0.15 91 1011.2
20260507121052 57 45 0.0 2.6 0.00 0.20 0.15 91 1010.9
20260507120552 57 0 0.0 3.5 0.00 0.20 0.15 91 1011.0
20260507120054 57 44 0.9 3.5 0.00 0.20 0.15 91 1010.9
20260507115553 57 0 0.0 3.5 0.00 0.20 0.15 91 1011.1
20260507115052 57 45 0.9 4.3 0.00 0.20 0.15 91 1011.2
20260507114553 57 44 0.9 4.3 0.00 0.20 0.15 91 1011.2
20260507114053 57 0 1.7 4.3 0.01 0.20 0.15 91 1010.9
20260507113551 57 44 0.9 4.3 0.01 0.20 0.15 91 1011.1
20260507113055 57 44 0.9 7.0 0.01 0.20 0.15 91 1011.1
20260507112552 57 13 1.7 7.8 0.01 0.20 0.15 91 1010.9
20260507112055 57 63 1.7 7.8 0.01 0.20 0.15 90 1010.9
20260507111554 57 55 3.5 7.8 0.01 0.20 0.15 90 1010.9
20260507111051 57 33 1.7 5.2 0.02 0.20 0.15 90 1011.0
20260507110551 57 112 0.9 5.2 0.02 0.20 0.15 90 1011.0
20260507110057 57 28 0.9 6.1 0.04 0.20 0.15 90 1011.0
20260507105553 57 28 0.9 6.1 0.07 0.20 0.15 90 1010.5
20260507105056 58 23 2.6 6.1 0.12 0.20 0.15 90 1010.4
20260507104554 58 355 0.9 4.3 0.13 0.20 0.15 90 1010.2
20260507104053 58 348 1.7 7.8 0.13 0.19 0.14 90 1010.4
20260507103554 58 61 3.5 7.8 0.13 0.19 0.14 90 1010.3
20260507103054 58 57 2.6 7.8 0.13 0.19 0.14 89 1010.2
20260507102553 59 42 1.7 8.7 0.14 0.19 0.14 89 1010.2
20260507102053 59 346 3.5 8.7 0.14 0.19 0.14 89 1010.1
20260507101606 59 9 2.6 7.8 0.14 0.19 0.14 89 1009.9
20260507101052 60 337 2.6 11.3 0.13 0.18 0.13 89 1009.9
20260507100555 61 28 3.5 11.3 0.13 0.18 0.13 89 1009.9
20260507095553 62 16 2.6 8.7 0.08 0.13 0.08 88 1009.9
20260507095052 63 13 3.5 9.6 0.03 0.08 0.03 88 1009.7
20260507094602 64 56 3.5 11.3 0.02 0.07 0.02 88 1009.7
20260507094057 65 32 2.6 11.3 0.01 0.06 0.01 87 1009.6
20260507093552 66 5 1.7 10.4 0.01 0.06 0.01 87 1009.4
20260507093055 67 5 3.5 10.4 0.01 0.06 0.01 89 1009.5
20260507092553 68 321 0.0 1.7 0.00 0.05 0.00 89 1009.4
20260507092054 68 0 0.9 1.7 0.00 0.05 0.00 89 1009.3
20260507091604 68 0 0.0 1.7 0.00 0.05 0.00 89 1009.5
20260507091101 68 0 0.0 3.5 0.00 0.05 0.00 89 1009.3
20260507090553 68 321 0.9 3.5 0.00 0.05 0.00 89 1009.4
20260507090115 68 322 0.0 3.5 0.00 0.05 0.00 89 1009.5
20260507085555 68 323 0.0 3.5 0.00 0.05 0.00 89 1009.2
20260507085053 68 261 0.0 2.6 0.00 0.05 0.00 89 1009.4
20260507084600 68 260 0.9 2.6 0.00 0.05 0.00 89 1009.4
20260507084052 68 0 0.0 2.6 0.00 0.05 0.00 88 1009.2
20260507083553 68 259 0.9 2.6 0.00 0.05 0.00 88 1009.1
20260507083101 68 259 0.0 0.9 0.00 0.05 0.00 88 1009.1
20260507082552 68 0 0.0 1.7 0.00 0.05 0.00 88 1008.9
20260507082052 68 0 0.0 1.7 0.00 0.05 0.00 88 1008.7
20260507081602 68 259 0.0 1.7 0.00 0.05 0.00 88 1008.4
20260507081052 68 0 0.0 1.7 0.00 0.05 0.00 88 1008.6
20260507080552 68 0 0.0 2.6 0.00 0.05 0.00 88 1008.5
20260507080056 69 258 0.0 3.5 0.00 0.05 0.00 87 1008.5
20260507075552 69 258 0.9 3.5 0.00 0.05 0.00 87 1008.3
20260507075052 69 266 1.7 3.5 0.00 0.05 0.00 87 1008.3
20260507074556 69 277 0.9 2.6 0.00 0.05 0.00 87 1008.6
20260507074053 69 0 0.0 6.1 0.00 0.05 0.00 87 1008.6
20260507073552 69 278 0.9 6.1 0.00 0.05 0.00 87 1008.6
20260507073108 69 319 0.9 4.3 0.00 0.05 0.00 87 1008.7
20260507072553 69 257 0.0 7.0 0.00 0.05 0.00 87 1008.5
20260507072052 69 258 0.9 7.0 0.00 0.05 0.00 87 1008.8
20260507071601 69 184 1.7 7.0 0.00 0.05 0.00 87 1008.9
20260507071053 69 242 1.7 7.0 0.00 0.05 0.00 87 1009.1
20260507070553 69 268 1.7 6.1 0.00 0.05 0.00 87 1008.9
20260507070138 69 198 0.9 7.0 0.00 0.05 0.00 87 1008.8
20260507065556 69 204 0.9 7.0 0.00 0.05 0.00 87 1008.9
20260507065052 69 165 0.0 5.2 0.00 0.05 0.00 86 1008.8
20260507064604 69 188 1.7 6.1 0.00 0.05 0.00 87 1008.8
20260507064053 68 192 1.7 6.1 0.00 0.05 0.00 87 1008.8
20260507063553 69 177 0.9 6.1 0.00 0.05 0.00 87 1008.7
20260507063101 69 163 1.7 7.0 0.00 0.05 0.00 86 1008.7
20260507062552 69 194 0.9 7.0 0.00 0.05 0.00 86 1008.7
20260507062054 69 207 1.7 7.0 0.00 0.05 0.00 86 1009.0
20260507061603 69 211 0.9 5.2 0.00 0.05 0.00 86 1008.9
20260507061050 69 198 0.9 5.2 0.00 0.05 0.00 85 1008.8
20260507060549 69 198 0.9 5.2 0.00 0.05 0.00 85 1008.8
20260507060054 69 171 0.0 4.3 0.00 0.05 0.00 85 1008.8
20260507055553 69 171 0.0 5.2 0.00 0.05 0.00 85 1008.7
20260507055054 69 0 0.9 5.2 0.00 0.05 0.00 85 1008.9
20260507054556 69 189 0.9 4.3 0.00 0.05 0.00 84 1008.8
20260507054053 70 178 0.9 4.3 0.00 0.05 0.00 85 1008.8
20260507053554 70 167 1.7 7.0 0.00 0.05 0.00 85 1009.1
20260507053054 70 196 1.7 7.0 0.00 0.05 0.00 84 1009.2
20260507052553 70 165 1.7 7.0 0.00 0.05 0.00 84 1009.3
20260507052053 70 199 1.7 8.7 0.00 0.05 0.00 84 1009.2
20260507051552 70 173 0.9 8.7 0.00 0.05 0.00 84 1009.4
20260507051053 70 184 1.7 7.0 0.00 0.05 0.00 84 1009.4
20260507050552 70 207 0.9 8.7 0.00 0.05 0.00 84 1009.6
20260507050056 70 180 2.6 8.7 0.00 0.05 0.00 83 1009.8
20260507045553 70 248 0.9 4.3 0.00 0.05 0.00 83 1010.0
20260507045056 70 189 0.9 6.1 0.00 0.05 0.00 83 1009.9
20260507044559 70 262 1.7 6.1 0.00 0.05 0.00 83 1010.2
20260507044053 70 185 1.7 4.3 0.00 0.05 0.00 83 1010.1
20260507043553 70 214 0.9 6.1 0.00 0.05 0.00 83 1010.1
20260507043055 70 190 1.7 6.1 0.00 0.05 0.00 83 1009.9
20260507042554 70 196 0.9 5.2 0.00 0.05 0.00 83 1009.9
20260507042053 70 196 1.7 5.2 0.00 0.05 0.00 83 1009.9
20260507041552 70 210 0.9 4.3 0.00 0.05 0.00 83 1010.0
20260507041053 70 184 0.9 6.1 0.00 0.05 0.00 83 1010.1
20260507040554 69 237 0.9 6.1 0.00 0.05 0.00 84 1010.0
20260507040055 69 0 0.9 6.1 0.00 0.05 0.00 84 1009.8
20260507035552 69 193 0.9 5.2 0.00 0.05 0.05 84 1009.7
20260507035052 69 193 1.7 5.2 0.00 0.05 0.05 84 1009.7
20260507034601 69 268 0.0 5.2 0.00 0.05 0.05 84 1009.8
20260507034052 68 187 0.9 4.3 0.00 0.05 0.05 85 1009.7
20260507033552 68 0 0.9 4.3 0.00 0.05 0.05 85 1009.7
20260507033055 68 186 0.9 4.3 0.00 0.05 0.05 85 1009.6
20260507032553 68 0 0.9 4.3 0.00 0.05 0.05 85 1009.5
20260507032052 68 180 0.9 3.5 0.00 0.05 0.05 85 1009.5
20260507031554 68 0 0.0 3.5 0.00 0.05 0.05 84 1009.6
20260507031055 68 180 0.9 3.5 0.00 0.05 0.05 84 1009.5
20260507030553 68 180 0.0 2.6 0.00 0.05 0.05 84 1009.6
20260507030116 68 180 0.0 2.6 0.00 0.05 0.05 84 1009.4
20260507025552 68 0 0.0 2.6 0.00 0.05 0.05 84 1009.3
20260507025053 68 180 0.0 2.6 0.00 0.05 0.05 84 1009.4
20260507024605 68 180 0.0 1.7 0.00 0.05 0.05 84 1009.6
20260507024057 68 0 0.0 1.7 0.00 0.05 0.05 84 1009.6
20260507023556 68 180 0.0 2.6 0.00 0.05 0.05 84 1009.6
20260507023055 68 0 0.0 2.6 0.00 0.05 0.05 84 1009.7
20260507022552 68 0 0.0 2.6 0.00 0.05 0.05 84 1009.7
20260507022053 68 0 0.0 3.5 0.00 0.05 0.05 84 1009.7
20260507021616 68 180 0.0 3.5 0.00 0.05 0.05 84 1009.6
20260507021052 68 180 0.0 3.5 0.00 0.05 0.05 84 1009.9
20260507020552 68 0 0.0 4.3 0.00 0.05 0.05 84 1010.1
20260507020103 68 0 0.0 4.3 0.00 0.05 0.05 83 1010.3
20260507015549 68 179 0.0 2.6 0.00 0.05 0.05 83 1010.1
20260507015054 68 0 0.0 2.6 0.00 0.05 0.05 83 1009.8
20260507014614 68 179 0.0 1.7 0.00 0.05 0.05 82 1010.0
20260507014052 68 0 0.0 2.6 0.00 0.05 0.05 82 1010.0
20260507013551 68 0 0.0 2.6 0.00 0.05 0.05 82 1009.8
20260507013056 68 0 0.9 2.6 0.00 0.05 0.05 81 1009.8
20260507012558 68 0 0.0 1.7 0.00 0.05 0.05 81 1009.7
20260507012053 69 179 0.0 1.7 0.00 0.05 0.05 81 1009.7
20260507011555 69 0 0.0 1.7 0.00 0.05 0.05 81 1009.8
20260507011055 69 0 0.0 1.7 0.00 0.05 0.05 80 1009.8
20260507010555 69 0 0.0 0.9 0.00 0.05 0.05 80 1009.7
20260507010109 69 0 0.0 0.9 0.00 0.05 0.05 80 1009.7
20260507005553 70 179 0.0 1.7 0.00 0.05 0.05 80 1009.9
20260507005052 70 0 0.0 4.3 0.00 0.05 0.05 80 1009.7
20260507004553 70 179 0.0 5.2 0.00 0.05 0.05 79 1009.7
20260507004052 70 0 0.9 5.2 0.00 0.05 0.05 79 1009.7
20260507003552 70 0 0.0 2.6 0.00 0.05 0.05 79 1009.9
20260507003054 71 0 0.9 2.6 0.00 0.05 0.05 79 1009.7
20260507002552 71 0 0.0 2.6 0.00 0.05 0.05 79 1009.8
20260507002050 71 0 0.9 4.3 0.00 0.05 0.05 79 1009.9
20260507001558 71 280 0.0 4.3 0.00 0.05 0.05 78 1009.9
20260507001051 71 195 0.9 4.3 0.00 0.05 0.05 78 1010.0
20260507000552 71 218 0.9 4.3 0.00 0.05 0.05 78 1010.0
20260507000059 71 0 0.9 4.3 0.00 0.05 0.05 78 1010.0
20260506235554 71 154 0.9 5.2 0.00 0.05 0.05 78 1009.9
20260506235055 72 263 1.7 5.2 0.00 0.05 0.05 78 1009.7
20260506234558 72 207 0.9 5.2 0.00 0.05 0.05 78 1009.4
20260506234052 72 178 0.9 5.2 0.00 0.05 0.05 77 1009.4
20260506233553 72 171 0.9 2.6 0.00 0.05 0.05 77 1009.5
20260506233059 72 243 0.9 3.5 0.00 0.05 0.05 77 1009.3
20260506232552 72 179 0.9 3.5 0.00 0.05 0.05 77 1009.4
20260506232052 72 0 0.0 4.3 0.00 0.05 0.05 77 1009.6
20260506231556 72 176 0.9 4.3 0.00 0.05 0.05 77 1009.6
20260506231055 73 223 0.0 3.5 0.00 0.05 0.05 77 1009.6
20260506230556 73 210 0.0 3.5 0.00 0.05 0.05 77 1009.5
20260506230103 73 0 0.9 5.2 0.00 0.05 0.05 77 1009.4
20260506225552 73 207 1.7 7.0 0.00 0.05 0.05 77 1009.5
20260506225053 73 273 0.9 7.0 0.00 0.05 0.05 76 1009.6
20260506224558 73 242 0.0 3.5 0.00 0.05 0.05 76 1009.5
20260506224051 73 229 0.9 3.5 0.00 0.05 0.05 76 1009.4
20260506223553 73 0 0.0 4.3 0.00 0.05 0.05 76 1009.3
20260506223055 73 204 0.9 4.3 0.00 0.05 0.05 76 1009.4
20260506222553 73 195 0.9 4.3 0.00 0.05 0.05 76 1009.5
20260506222053 73 0 0.0 3.5 0.00 0.05 0.05 76 1009.4
20260506221558 73 227 0.9 5.2 0.00 0.05 0.05 75 1009.2
20260506221052 73 262 0.9 5.2 0.00 0.05 0.05 75 1009.3
20260506220552 73 0 0.9 3.5 0.00 0.05 0.05 75 1009.3
20260506220057 74 234 0.9 3.5 0.00 0.05 0.05 75 1009.4
20260506215556 74 194 0.0 10.4 0.00 0.05 0.05 75 1009.3
20260506215053 74 188 1.7 10.4 0.00 0.05 0.05 74 1009.4
20260506214554 74 238 0.0 5.2 0.00 0.05 0.05 75 1009.4
20260506214052 74 236 0.9 5.2 0.00 0.05 0.05 74 1009.4
20260506213552 74 194 1.7 8.7 0.00 0.05 0.05 75 1009.6
20260506213054 73 249 1.7 8.7 0.00 0.05 0.05 75 1009.7
20260506212555 73 286 2.6 8.7 0.00 0.05 0.05 75 1009.7
20260506212052 73 169 0.9 8.7 0.00 0.05 0.05 75 1009.7
20260506211554 73 176 1.7 6.1 0.00 0.05 0.05 75 1009.6
20260506211053 73 159 1.7 9.6 0.00 0.05 0.05 75 1009.5
20260506210552 72 197 1.7 9.6 0.00 0.05 0.05 75 1009.6
20260506210055 72 237 2.6 9.6 0.00 0.05 0.05 75 1009.5
20260506205553 72 298 0.9 6.1 0.00 0.05 0.05 75 1009.8
20260506205052 72 196 0.9 8.7 0.00 0.05 0.05 75 1009.7
20260506204555 72 186 1.7 8.7 0.00 0.05 0.05 75 1009.7
20260506204053 72 186 2.6 10.4 0.00 0.05 0.05 76 1009.6
20260506203552 72 270 1.7 10.4 0.00 0.05 0.05 75 1009.8
20260506203055 72 202 2.6 8.7 0.00 0.05 0.05 76 1009.5
20260506202552 72 194 2.6 8.7 0.00 0.05 0.05 76 1009.4
20260506202052 72 148 0.9 7.0 0.00 0.05 0.05 76 1009.4
20260506201617 72 269 2.6 9.6 0.00 0.05 0.05 76 1009.3
20260506201053 72 205 1.7 9.6 0.00 0.05 0.05 76 1009.1
20260506200554 72 199 2.6 10.4 0.00 0.05 0.05 77 1009.0
20260506200055 72 261 2.6 10.4 0.00 0.05 0.05 77 1008.9
20260506195552 72 224 2.6 10.4 0.00 0.05 0.05 78 1008.8
20260506195054 72 176 2.6 9.6 0.00 0.05 0.05 78 1008.8
20260506194554 72 184 2.6 8.7 0.00 0.05 0.05 78 1008.8
20260506194053 72 0 1.7 8.7 0.00 0.05 0.05 78 1009.0
20260506193553 72 285 1.7 10.4 0.00 0.05 0.05 78 1009.1
20260506193056 72 195 0.9 10.4 0.00 0.05 0.05 79 1009.2
20260506192552 72 213 1.7 9.6 0.00 0.05 0.05 79 1009.4
20260506192052 71 175 1.7 9.6 0.00 0.05 0.05 79 1009.2
20260506191558 71 174 2.6 8.7 0.00 0.05 0.05 79 1009.3
20260506191053 71 203 1.7 9.6 0.00 0.05 0.05 79 1009.5
20260506190555 71 176 2.6 9.6 0.00 0.05 0.05 80 1009.5
20260506190054 70 188 2.6 7.0 0.00 0.05 0.05 80 1009.8
20260506185552 70 196 1.7 6.1 0.00 0.05 0.05 81 1009.9
20260506185052 70 169 0.9 12.2 0.00 0.05 0.05 81 1010.2
20260506184601 69 164 1.7 12.2 0.00 0.05 0.05 82 1010.1
20260506184052 69 182 0.9 7.8 0.00 0.05 0.05 82 1010.3
20260506183555 69 176 2.6 7.8 0.00 0.05 0.05 82 1010.6
20260506183055 69 205 1.7 7.0 0.00 0.05 0.05 83 1010.8
20260506182556 68 193 1.7 5.2 0.00 0.05 0.05 82 1011.0
20260506182053 68 177 0.9 7.8 0.00 0.05 0.05 83 1011.0
20260506181555 68 190 0.9 7.8 0.00 0.05 0.05 83 1011.0
20260506181053 68 236 1.7 7.8 0.00 0.05 0.05 83 1011.2
20260506180552 68 178 0.9 7.8 0.00 0.05 0.05 83 1011.3
20260506180056 68 215 1.7 7.8 0.00 0.05 0.05 82 1011.3
20260506175553 68 193 1.7 7.8 0.00 0.05 0.05 82 1011.4
20260506175054 68 261 1.7 7.8 0.00 0.05 0.05 82 1011.5
20260506174554 67 181 1.7 7.0 0.00 0.05 0.05 82 1011.4
20260506174053 67 173 0.9 8.7 0.00 0.05 0.05 82 1011.3
20260506173554 67 162 1.7 8.7 0.00 0.05 0.05 82 1011.2
20260506173120 67 189 2.6 8.7 0.00 0.05 0.05 83 1011.0
20260506172552 67 216 1.7 8.7 0.00 0.05 0.05 83 1011.0
20260506172052 67 142 0.9 7.8 0.00 0.05 0.05 83 1011.2
20260506171559 67 200 0.9 13.0 0.00 0.05 0.05 83 1011.1
20260506171052 67 201 2.6 13.0 0.00 0.05 0.05 84 1011.1
20260506170551 67 175 2.6 9.6 0.00 0.05 0.05 84 1011.2
20260506165556 66 165 1.7 9.6 0.00 0.05 0.05 84 1011.3
20260506165053 66 154 0.9 5.2 0.00 0.05 0.05 84 1011.3
20260506164555 66 0 1.7 7.0 0.00 0.05 0.05 84 1011.3
20260506164051 66 217 1.7 10.4 0.00 0.05 0.05 84 1011.1
20260506163553 66 178 2.6 10.4 0.00 0.05 0.05 84 1011.4
20260506163109 66 203 1.7 9.6 0.00 0.05 0.05 85 1011.4
20260506162552 66 186 3.5 9.6 0.00 0.05 0.05 85 1011.6
20260506162053 66 206 2.6 9.6 0.00 0.05 0.05 85 1011.6
20260506161600 65 205 1.7 8.7 0.00 0.05 0.05 85 1011.8
20260506161053 65 200 2.6 5.2 0.00 0.05 0.05 85 1012.0